This is the latest recevied weather packets stored in our database for station/object W4KUS-10. If no packets are shown the sender has not sent any weather packets the latest 10 day(s).
| Time | Temp. | Humidity | Pressure | Rain* | Wind** | Luminosity | Snow |
|---|---|---|---|---|---|---|---|
| 1777763741 | 13.89° C | 95% | 1009.7 hPa | 0 mm | - | - | - |
| 1777763441 | 14.44° C | 95% | 1009.6 hPa | 0 mm | - | - | - |
| 1777763141 | 14.44° C | 95% | 1009.6 hPa | 0 mm | - | - | - |
| 1777762841 | 14.44° C | 95% | 1009.5 hPa | 0 mm | - | - | - |
| 1777762541 | 14.44° C | 95% | 1009.5 hPa | 0 mm | - | - | - |
| 1777762241 | 14.44° C | 95% | 1009.5 hPa | 0 mm | - | - | - |
| 1777761941 | 14.44° C | 95% | 1009.6 hPa | 0 mm | - | - | - |
| 1777761641 | 14.44° C | 95% | 1009.5 hPa | 0.25 mm | - | - | - |
| 1777761341 | 14.44° C | 95% | 1009.6 hPa | 1.02 mm | - | - | - |
| 1777761041 | 14.44° C | 95% | 1009.5 hPa | 1.27 mm | - | - | - |
| 1777760741 | 14.44° C | 95% | 1009.4 hPa | 1.78 mm | - | - | - |
| 1777760441 | 14.44° C | 95% | 1009.3 hPa | 1.02 mm | - | - | - |
| 1777760141 | 14.44° C | 95% | 1009.3 hPa | 1.52 mm | - | - | - |
| 1777759841 | 14.44° C | 95% | 1009.4 hPa | 1.02 mm | - | - | - |
| 1777759541 | 14.44° C | 95% | 1009.4 hPa | 1.52 mm | - | - | - |
| 1777759241 | 14.44° C | 95% | 1009.3 hPa | 1.27 mm | - | - | - |
| 1777758941 | 14.44° C | 95% | 1009.1 hPa | 2.03 mm | - | - | - |
| 1777758641 | 14.44° C | 95% | 1009.2 hPa | 2.79 mm | - | - | - |
| 1777758341 | 14.44° C | 95% | 1009.2 hPa | 3.05 mm | - | - | - |
| 1777758041 | 14.44° C | 95% | 1009.1 hPa | 2.79 mm | - | - | - |
| 1777757741 | 14.44° C | 94% | 1009.1 hPa | 1.78 mm | - | - | - |
| 1777757441 | 14.44° C | 95% | 1009.3 hPa | 1.02 mm | - | - | - |
| 1777757141 | 14.44° C | 95% | 1009.2 hPa | 1.02 mm | - | - | - |
| 1777756841 | 14.44° C | 94% | 1009 hPa | 1.02 mm | - | - | - |
| 1777756541 | 14.44° C | 94% | 1008.8 hPa | 1.02 mm | - | - | - |
* Rain latest hour (hover to see other rain measurements)
** Current wind speed in m/s (hover to see current wind gust speed)